This demonstration page uses our WeatherBlox Daily Observations layout. Learn more.

Left ArrowRight Arrow

Hourly Observations for June 27, 2017

Temp ( °F °C ) Dew Point ( °F °C ) Humidity (%) Winds ( mph kmh ) Pressure ( in mb ) Visibility ( mi km ) Precip ( " mm )
12:53 am 00:53 Clear 60 15.6 53 11.7 78 78 WSW 3 6 29.62 1003 10 16 0.00 0.00
1:53 am 01:53 Clear 59 15 53 11.7 81 81 WNW 7 11 29.61 1003 10 16 0.00 0.00
2:53 am 02:53 Clear 60 15.6 52 11.1 75 75 WSW 6 9 29.59 1002 10 16 0.00 0.00
3:53 am 03:53 Mostly Cloudy 63 17.2 51 10.6 65 65 WSW 6 9 29.58 1002 10 16 0.00 0.00
4:53 am 04:53 Mostly Cloudy 63 17.2 52 11.1 68 68 W 5 7 29.58 1002 10 16 0.00 0.00
5:53 am 05:53 Sunny 69 20.6 52 11.1 55 55 SW 16 26 29.58 1002 10 16 0.00 0.00
6:53 am 06:53 Partly Cloudy 70 21.1 52 11.1 53 53 SSW 14 22 29.58 1002 10 16 0.00 0.00
7:53 am 07:53 Mostly Cloudy 70 21.1 52 11.1 53 53 WSW 8 13 29.61 1003 10 16 0.00 0.00
8:53 am 08:53 Mostly Cloudy 74 23.3 53 11.7 48 48 W 13 20 29.61 1003 10 16 0.00 0.00
9:53 am 09:53 Sunny 74 23.3 50 10 43 43 W 14 22 29.61 1003 10 16 0.00 0.00
10:53 am 10:53 Mostly Sunny 78 25.6 53 11.7 42 42 WNW 23 37 29.63 1003 10 16 0.00 0.00
11:53 am 11:53 Partly Cloudy 74 23.3 54 12.2 50 50 WNW 21 33 29.66 1005 10 16 0.00 0.00
12:53 pm 12:53 Sunny 73 22.8 54 12.2 51 51 NW 22 35 29.69 1005 10 16 0.00 0.00
1:53 pm 13:53 Sunny 70 21.1 53 11.7 55 55 NW 14 22 29.71 1006 10 16 0.00 0.00
2:53 pm 14:53 Sunny 80 26.7 51 10.6 37 37 NW 17 28 29.68 1005 10 16 0.00 0.00
3:53 pm 15:53 Mostly Cloudy 81 27.2 46 7.8 29 29 NW 21 33 29.67 1005 10 16 0.00 0.00
4:53 pm 16:53 Sunny 81 27.2 45 7.2 28 28 NW 15 24 29.67 1005 10 16 0.00 0.00
5:53 pm 17:53 Mostly Sunny 81 27.2 42 5.6 25 25 NNW 17 28 29.66 1005 10 16 0.00 0.00
6:53 pm 18:53 Sunny 80 26.7 40 4.4 24 24 NNW 10 17 29.66 1005 10 16 0.00 0.00
7:53 pm 19:53 Sunny 77 25 39 3.9 26 26 N 10 17 29.67 1005 10 16 0.00 0.00
8:53 pm 20:53 Sunny 71 21.7 42 5.6 35 35 ENE 5 7 29.66 1005 10 16 0.00 0.00
9:53 pm 21:53 Clear 61 16.1 46 7.8 58 58 E 8 13 29.67 1005 10 16 0.00 0.00
10:53 pm 22:53 Clear 58 14.4 43 6.1 58 58 SE 5 7 29.69 1005 10 16 0.00 0.00
11:53 pm 23:53 Clear 57 13.9 42 5.6 58 58 SSE 3 6 29.69 1006 10 16 0.00 0.00

Powered by AerisWeather